Погода в Семипалатинске

Хотите узнать прогноз погоды в Семипалатинске? Тогда Вам сюда: Погода в Семипалатинске

Поиск расширенной информации на нашем сайте:

Полезная информация:

Новости сайта



02.01.2020
Опубликован Долгосрочный прогноз погоды по городам России и ближнего зарубежья на январь 2020 года.
Карты: Прогноз на январь и февраль 2020 года, Сравнение прогнозируемой аномалии приземной температуры воздуха на январь 2020 года по разным моделям.




Погода в Семипалатинске - сегодня

Время (UTC), дата Ветер
(°,м/с) 
Видим.   Явления Облачность Т
(°С)
Тd
(°С)
f(%) Тe
(°С)
Pmin
(гПа)
dP
(гПа)
Po
(мм)
O2
(г/м3)
Тmin Tmax R s Состояние
почвы
00 19.01.20 180 (Ю) н/о    10/0 средняя 
[As op]
-6 -8.7 81 -11  1022.1  -2  748  309           
03 19.01.20 230 (ЮЗ) 10 км    10/10 1000 м 
[Sc]
-5.4 -8.7 78 -10  1022.2  0.1  748  308        33  неравномерный
сухой снег
100% 
06 19.01.20 200 (Ю) 10 км    9/8 1000 м средняя 
[Sc|Ac trans]
-4.7 -8.6 74 -6  1022  -0.1  748  307  -8         
09 19.01.20 200 (Ю) 4000 м  слаб. снег  10/0 средняя 
[As op]
-4.5 -5.8 91 -6  1020.7  -1.2  747  307           
12 19.01.20 230 (ЮЗ) н/о  {снег}  10/0 средняя 
[Ac As]
-3.6 -5.1 89 -5  1021.4  0.7  747  306           
15 19.01.20 270 (З) н/о    10/0 средняя 
[Ac As]
-4 -6.2 85 -7  1022.6  1.2  748  307    -2.7     
18 19.01.20 270 (З) н/о    10/10 1000 м 
[Sc]
-4.2 -6.1 87 -5  1024.1  1.4  749  307    -2.7     
21 19.01.20 250 (З) н/о    9/9 1000 м 
[Sc]
-5.2 -7.3 85 -7  1027  2.7  751  309           
00 20.01.20 270 (З) н/о    6/3 1000 м средняя 
[Sc|Ac trans]
-9.6 -11.7 85 -11  1028.4  752  315           
03 20.01.20 270 (З) 10 км    9/8 1000 м средняя 
[Sc|Ac trans]
-13.3 -14.7 89 -15  1029.8  753  320        34  неравномерный
сухой снег
100% 
06 20.01.20 тихо ()   10 км  в посл. час снег  9/0 средняя, верхняя 
[Ac As|Ci fib]
-13.7 -16.1 82 -14  1030.8  0.9  754  321  -13.3         
09 20.01.20 тихо ()   10 км    9/0 средняя 
[Ac trans]
-13.3 -16.3 78 -13  1029.8  -0.9  753  320           
12 20.01.20 тихо ()   н/о    9/0 средняя, верхняя 
[Ac trans|Ci fib]
-16 -18.1 84 -16  1029.2  -0.9  752  323           
15 20.01.20 тихо ()   н/о    9/0 средняя, верхняя 
[Ac trans|Ci fib]
-19.2 -20.6 89 -19  1028.7  -0.8  752  327    -12.5  0.0     
18 20.01.20 тихо ()   н/о    9/3 1000 м средняя 
[Sc|Ac trans]
-16.2 -17.6 89 -16  1026.4  -1.9  750  323    -12.5  0.0     
21 20.01.20 тихо ()   н/о    9/4 1000 м средняя 
[Sc|Ac trans]
-13 -15 85 -13  1025  -1.1  749  318           
00 21.01.20 140 (ЮВ) н/о  слаб. ливневой снег  10/10 600 м кучево-дожд. 
[Cb calv]
-12.4 -14.4 85 -14  1020.2  -4.6  746  316           
03 21.01.20 200 (Ю) 10 км  слаб. ливневой снег  10/10 600 м кучево-дожд. 
[Cb calv]
-6.7 -9.1 83 -10  1019  -0.6  745  309      0.8  35  неравномерный
сухой снег
100% 
06 21.01.20 230 (ЮЗ) 10 км  слаб. ливневой снег  10/10 600 м кучево-дожд. 
[Cb calv]
-5.9 -8.5 82 -7  1019.6  0.7  746  308  -19.4    0.8     
09 21.01.20 230 (ЮЗ) 2000 м  ливневой снег  10/10 600 м кучево-дожд. 
[Cb calv]
-6.1 -7.2 92 -11  1019.9  0.2  746  308           
12 21.01.20 230 (ЮЗ) н/о  слаб. ливневой снег  10/10 600 м кучево-дожд. 
[Cb calv]
-6.2 -7.4 91 -8  1021.1  1.2  747  309           
15 21.01.20 200 (Ю) н/о  слаб. ливневой снег  10/10 600 м кучево-дожд. 
[Cb calv]
-6.8 -7.7 93 -8  1022.1  0.9  748  310    -5.3     
18 21.01.20 200 (Ю) н/о  слаб. ливневой снег  10/10 600 м кучево-дожд. 
[Cb calv]
-7 -7.9 93 -8  1022.4  0.3  748  310    -5.3     
21 21.01.20 200 (Ю) н/о  {ливн. осадки}  10/10 600 м кучево-дожд. 
[Cb calv]
-7.1 -9.6 82 -11  1022.5  0.1  748  310           
00 22.01.20 230 (ЮЗ) н/о  слаб. ливневой снег  10/10 600 м кучево-дожд. 
[Cb calv]
-6.7 -7.9 91 -10  1022.5  748  310           
Время (UTC), дата Ветер
(°,м/с) 
Видим.   Явления Облачность Т
(°С)
Тd
(°С)
f(%) Тe
(°С)
Pmin
(гПа)
dP
(гПа)
Po
(мм)
O2
(г/м3)
Тmin Tmax R s Состояние
почвы

Для получения пояснительной информации подведите курсор к названию столбца.

ПОГОДА в Семипалатинске - архив

Всё, что Вы хотите узнать о погоде в Семипалатинске - удобно и подробно!

Выберите нужную дату (начиная с 1 января 2019* года) и нажмите кнопку "Найти".
Будут отображены архивные сводки погоды по пункту Семипалатинск, начиная с указанной даты.


Отображать данные в формате CSV (для использования в таблицах Excel)


Внимание! Наш архив погоды предназначен исключительно для личного некоммерческого использования в познавательных целях. Если Вам необходимы официальные справки о состоянии погоды (для производственных, юридических, коммерческих и т.п. целей), обращайтесь в органы Росгидромета.

*Примечание: данная дата относится к архиву по метеостанциям СССР (Россия, СНГ, Балтия).
Архив по метеостанциям Зарубежной Европы и Азии (кроме Китая) хранится 10 дней, по другим регионам земного шара (Китай, Африка, Америка, Австралия, Океания) - 1 день.

Семипалатинск - район местоположения метеостанции


Название, широта, долгота, высота метеостанции:
Семипалатинск 50.4°ш. 80.3°д. 196 м над ур. моря [Казахстан]

Дополнительная информация

В oтличие oт бoльшинства пoгoдных сайтoв мы публикуем пoдрoбную метеoинфoрмацию в детальнoм прoфессиoнальнoм фoрмате.

Характеристики температуры и влажнoсти вoздуха измеряются на высoте 2 м в тени вдали oт зданий и деревьев.
Скoрoсть ветра измеряется на высoте 10 м (на урoвне рoста челoвека скoрoсть ветра ниже в 1.5-2 раза). Если метеoстанция нахoдится в гoрoде или в лесу, тo скoрoсть ветра занижена на 2-4 м/с пo сравнению с oткрытым местoм. Скoрoсть ветра над акватoриями крупных рек и oзёр, а также на вершинах хoлмoв на 2-5 м/с выше, чем в oбычных услoвиях.
Атмoсфернoе давление в разных тoчках местнoсти мoжет значительнo oтличаться oт давления на метеoстанции, в зависимoсти oт услoвий рельефа (при пoдъёме на 10 м давление пoнижается примернo на 1 мм рт.ст.).